This demonstration page uses our WeatherBlox Daily Observations layout. Learn more.

40.92945, -100.16068

Hourly Observations for October 14, 2019

Temp ( °F °C ) Dew Point ( °F °C ) Humidity (%) Winds ( mph kmh ) Pressure ( in mb ) Visibility ( mi km ) Precip ( " mm )
12:15 am 00:15 Clear 36 2.1 27 -2.6 71 71 E 5 7 30.06 1018 10 16.0934 0 0
12:35 am 00:35 Clear 36 2.2 27 -2.6 71 71 E 3 6 30.06 1018 10 16.0934 0 0
12:55 am 00:55 Clear 35 1.7 27 -2.7 73 73 E 3 6 30.05 1018 10 16.0934 0 0
1:15 am 01:15 Clear 35 1.7 27 -2.6 73 73 E 3 6 30.05 1018 10 16.0934 0 0
1:35 am 01:35 Clear 34 1 27 -2.9 75 75 Calm 30.06 1018 10 16.0934 0 0
1:55 am 01:55 Clear 34 0.9 27 -2.7 77 77 SSE 3 6 30.06 1018 10 16.0934 0 0
2:15 am 02:15 Clear 34 1.2 28 -2.5 77 77 SSE 3 6 30.04 1017 10 16.0934 0 0
2:35 am 02:35 Clear 34 1.1 28 -2.3 78 78 Calm 30.06 1018 10 16.0934 0 0
2:55 am 02:55 Clear 35 1.5 28 -2.5 75 75 ESE 3 6 30.04 1017 10 16.0934 0 0
3:15 am 03:15 Clear 34 1.1 28 -2.5 77 77 ESE 5 7 30.04 1017 10 16.0934 0 0
3:35 am 03:35 Clear 35 1.4 28 -2.3 77 77 Calm 30.03 1017 10 16.0934 0 0
3:55 am 03:55 Clear 32 0 28 -2.5 83 83 Calm 30.05 1017 10 16.0934 0 0
4:15 am 04:15 Clear 31 -0.4 28 -2.5 86 86 Calm 30.05 1018 10 16.0934 0 0
4:35 am 04:35 Clear 31 -0.6 28 -2.5 87 87 ENE 5 7 30.04 1017 10 16.0934 0 0
4:55 am 04:55 Clear 32 0 28 -2.5 83 83 ENE 5 7 30.04 1017 10 16.0934 0 0
5:15 am 05:15 Clear 33 0.4 28 -2.3 82 82 ENE 3 6 30.03 1017 10 16.0934 0 0
5:35 am 05:35 Clear 32 0 28 -2.5 83 83 ENE 5 7 30.04 1017 10 16.0934 0 0
5:55 am 05:55 Clear 31 -0.3 28 -2.5 85 85 E 6 9 30.03 1017 10 16.0934 0 0
6:15 am 06:15 Clear 32 -0.1 28 -2.5 84 84 E 5 7 30.02 1017 10 16.0934 0 0
6:35 am 06:35 Clear 32 0 28 -2.4 84 84 NE 3 6 30.03 1017 10 16.0934 0 0
6:55 am 06:55 Clear 32 -0.1 28 -2.5 84 84 Calm 30.03 1017 10 16.0934 0 0
7:15 am 07:15 Clear 31 -0.6 28 -2.5 87 87 Calm 30.03 1017 10 16.0934 0 0
7:35 am 07:35 Clear 31 -0.4 28 -2.5 86 86 Calm 30.04 1017 10 16.0934 0 0
7:55 am 07:55 Sunny 32 -0.1 28 -2.4 85 85 Calm 30.03 1017 10 16.0934 0 0
8:15 am 08:15 Sunny 32 -0.1 28 -2.1 87 87 E 3 6 30.03 1017 10 16.0934 0 0
8:35 am 08:35 Sunny 33 0.6 30 -1.1 89 89 E 3 6 30.01 1016 10 16.0934 0 0
8:55 am 08:55 Sunny 37 2.5 31 -0.5 81 81 Calm 29.99 1016 10 16.0934 0 0
9:15 am 09:15 Sunny 41 5 32 0 70 70 SSE 3 6 29.97 1015 10 16.0934 0 0
9:35 am 09:35 Sunny 42 5.7 33 0.5 70 70 SE 3 6 29.96 1015 10 16.0934 0 0
9:55 am 09:55 Sunny 45 7.1 35 1.6 68 68 S 3 6 29.95 1014 10 16.0934 0 0
10:15 am 10:15 Sunny 49 9.4 36 2 60 60 S 7 11 29.93 1013 10 16.0934 0 0
10:35 am 10:35 Sunny 52 11.1 38 3.1 58 58 S 7 11 29.9 1013 10 16.0934 0 0
10:55 am 10:55 Sunny 54 12.4 38 3.4 54 54 SSE 7 11 29.88 1012 10 16.0934 0 0
11:15 am 11:15 Sunny 56 13.6 38 3.6 51 51 S 5 7 29.87 1011 10 16.0934 0 0
11:35 am 11:35 Sunny 58 14.7 39 3.7 48 48 SSW 6 9 29.85 1011 10 16.0934 0 0
11:55 am 11:55 Sunny 61 16.2 40 4.2 45 45 S 6 9 29.84 1010 10 16.0934 0 0
12:15 pm 12:15 Sunny 63 17.1 40 4.5 43 43 SSW 7 11 29.82 1010 10 16.0934 0 0
12:35 pm 12:35 Sunny 65 18.3 41 4.8 41 41 SW 6 9 29.79 1009 10 16.0934 0 0
12:55 pm 12:55 Sunny 67 19.7 41 4.9 38 38 SSW 12 19 29.77 1008 10 16.0934 0 0
1:15 pm 13:15 Sunny 69 20.5 40 4.5 35 35 SSW 14 22 29.75 1007 10 16.0934 0 0
1:35 pm 13:35 Sunny 69 20.5 40 4.3 35 35 S 12 19 29.74 1007 10 16.0934 0 0
1:55 pm 13:55 Sunny 69 20.7 40 4.4 34 34 S 15 24 29.73 1007 10 16.0934 0 0
2:15 pm 14:15 Sunny 69 20.8 39 3.8 33 33 SSW 10 17 29.71 1006 10 16.0934 0 0
2:35 pm 14:35 Sunny 70 21.3 39 3.9 32 32 SSW 10 17 29.7 1006 10 16.0934 0 0
2:55 pm 14:55 Sunny 72 22.2 40 4.4 31 31 SW 14 22 29.68 1005 10 16.0934 0 0
3:15 pm 15:15 Sunny 72 22.4 40 4.6 31 31 SW 14 22 29.67 1005 10 16.0934 0 0
3:35 pm 15:35 Sunny 74 23.3 40 4.6 30 30 SSW 17 28 29.66 1005 10 16.0934 0 0
3:55 pm 15:55 Sunny 74 23.5 41 4.9 30 30 SSW 14 22 29.65 1004 10 16.0934 0 0
4:15 pm 16:15 Sunny 75 23.8 40 4.7 29 29 SSW 14 22 29.65 1004 10 16.0934 0 0
4:35 pm 16:35 Sunny 76 24.3 39 4 27 27 SSW 12 19 29.64 1004 10 16.0934 0 0
4:55 pm 16:55 Sunny 76 24.4 37 2.6 24 24 SW 10 17 29.64 1004 10 16.0934 0 0
5:15 pm 17:15 Sunny 76 24.5 35 1.5 22 22 SW 9 15 29.64 1004 10 16.0934 0 0
5:35 pm 17:35 Sunny 76 24.5 35 1.5 22 22 SW 8 13 29.64 1004 10 16.0934 0 0
5:55 pm 17:55 Sunny 75 23.9 30 -1.3 19 19 SW 8 13 29.64 1004 10 16.0934 0 0
6:15 pm 18:15 Sunny 73 23 30 -0.9 20 20 Calm 29.65 1004 10 16.0934 0 0
6:35 pm 18:35 Sunny 71 21.6 32 -0.2 23 23 SSW 5 7 29.66 1004 10 16.0934 0 0
6:55 pm 18:55 Sunny 67 19.5 33 0.6 28 28 S 3 6 29.69 1005 10 16.0934 0 0
7:15 pm 19:15 Clear 63 17 33 0.7 33 33 S 5 7 29.71 1006 10 16.0934 0 0
7:35 pm 19:35 Clear 58 14.6 34 1.1 40 40 Calm 29.74 1007 10 16.0934 0 0
7:55 pm 19:55 Clear 57 14.1 33 0.6 40 40 Calm 29.75 1008 10 16.0934 0 0
8:15 pm 20:15 Clear 52 11 35 1.9 54 54 Calm 29.78 1009 7 11.26538 0 0
8:35 pm 20:35 Clear 49 9.7 35 1.8 58 58 Calm 29.79 1009 7 11.26538 0 0
8:55 pm 20:55 Clear 50 10.1 34 1 54 54 Calm 29.79 1009 10 16.0934 0 0
9:15 pm 21:15 Clear 46 7.8 33 0.7 61 61 Calm 29.82 1010 7 11.26538 0 0
9:35 pm 21:35 Clear 46 7.5 34 1.1 64 64 Calm 29.82 1010 7 11.26538 0 0
9:55 pm 21:55 Clear 44 6.9 35 1.5 69 69 NE 5 7 29.84 1010 7 11.26538 0 0
10:15 pm 22:15 Clear 44 6.5 34 1.2 69 69 NNW 3 6 29.85 1011 10 16.0934 0 0
10:35 pm 22:35 Clear 41 5 34 1 76 76 WNW 5 7 29.87 1011 10 16.0934 0 0
10:55 pm 22:55 Clear 41 4.9 34 1 76 76 W 5 7 29.87 1011 10 16.0934 0 0
11:15 pm 23:15 Clear 39 4.1 35 1.5 83 83 NNW 6 9 29.89 1012 10 16.0934 0 0
11:35 pm 23:35 Clear 42 5.5 34 1.1 74 74 NNW 10 17 29.88 1012 10 16.0934 0 0
11:55 pm 23:55 Clear 46 7.8 34 1 62 62 N 10 17 29.88 1012 10 16.0934 0 0

Powered by AerisWeather